Location: Beneden-Haastrecht
(52.0012°N, 4.7557°E)
Time: 11:49:42
(UTC+00:00)

Cosmos 1943 Rocket - Pass Details

Date: 24 October 2020
Orbit: 813 x 842 km, 71.0° (Epoch: 25 November)

Event Time Altitude Azimuth Distance (km) Brightness Sun altitude
Rises 17:48:06 0° 254° (WSW) 3,353 7.0 -13.0°
Reaches altitude 10° 17:50:58 10° 267° (W) 2,419 6.1 -13.5°
Maximum altitude 17:55:28 25° 322° (NW) 1,615 4.1 -14.2°
Drops below altitude 10° 17:59:58 10° 16° (NNE) 2,418 4.4 -14.9°
Enters shadow 18:02:48 - 30° (NNE) 3,337 5.0 -15.3°
